| time (UTC) | temp C | wind direction | speed KPH | gust KPH | rain 1hr cm | rain 24hr cm | rain mn cm | humidity % | barometer mb |
| 20260504050536 | 11 | 270 | 14.5 | 20.9 | 0.00 | 0.00 | 0.00 | 56 | 975.3 |
| 20260504045535 | 11 | 263 | 16.1 | 22.5 | 0.00 | 0.00 | 0.00 | 57 | 975.3 |
| 20260504045035 | 11 | 262 | 14.5 | 17.7 | 0.00 | 0.00 | 0.00 | 57 | 975.3 |
| 20260504044535 | 11 | 264 | 16.1 | 29.0 | 0.00 | 0.00 | 0.00 | 57 | 975.3 |
| 20260504044034 | 11 | 278 | 14.5 | 20.9 | 0.00 | 0.00 | 0.00 | 57 | 975.3 |
| 20260504043534 | 11 | 264 | 11.3 | 17.7 | 0.00 | 0.00 | 0.00 | 57 | 975.3 |
| 20260504043034 | 11 | 271 | 9.7 | 16.1 | 0.00 | 0.00 | 0.00 | 57 | 975.3 |
| 20260504042533 | 11 | 259 | 11.3 | 22.5 | 0.00 | 0.00 | 0.00 | 57 | 975.4 |
| 20260504042033 | 11 | 266 | 12.9 | 24.1 | 0.00 | 0.00 | 0.00 | 57 | 975.4 |
| 20260504041533 | 11 | 260 | 9.7 | 16.1 | 0.00 | 0.00 | 0.00 | 57 | 975.4 |
| 20260504041032 | 11 | 276 | 11.3 | 19.3 | 0.00 | 0.00 | 0.00 | 56 | 975.4 |
| 20260504040532 | 11 | 268 | 14.5 | 22.5 | 0.00 | 0.00 | 0.00 | 56 | 975.5 |
| 20260504040032 | 11 | 265 | 19.3 | 25.7 | 0.00 | 0.00 | 0.00 | 56 | 975.5 |
| 20260504035531 | 11 | 269 | 16.1 | 25.7 | 0.00 | 0.00 | 0.00 | 55 | 975.5 |
| 20260504035031 | 11 | 281 | 12.9 | 24.1 | 0.00 | 0.00 | 0.00 | 55 | 975.6 |
| 20260504034531 | 12 | 269 | 16.1 | 24.1 | 0.00 | 0.00 | 0.00 | 55 | 975.6 |
| 20260504034031 | 12 | 270 | 20.9 | 27.4 | 0.00 | 0.00 | 0.00 | 54 | 975.7 |
| 20260504033531 | 12 | 266 | 16.1 | 30.6 | 0.00 | 0.00 | 0.00 | 54 | 975.6 |
| 20260504033030 | 12 | 257 | 17.7 | 35.4 | 0.00 | 0.00 | 0.00 | 53 | 975.7 |
| 20260504032530 | 12 | 267 | 11.3 | 17.7 | 0.00 | 0.00 | 0.00 | 53 | 975.7 |
| 20260504032030 | 12 | 274 | 17.7 | 24.1 | 0.00 | 0.00 | 0.00 | 53 | 975.8 |
| 20260504031530 | 12 | 268 | 19.3 | 25.7 | 0.00 | 0.00 | 0.00 | 53 | 975.8 |
| 20260504030508 | 12 | 280 | 19.3 | 30.6 | 0.00 | 0.00 | 0.00 | 54 | 975.8 |
| 20260504030008 | 12 | 260 | 14.5 | 22.5 | 0.00 | 0.00 | 0.00 | 54 | 975.8 |
| 20260504025508 | 12 | 255 | 16.1 | 22.5 | 0.00 | 0.00 | 0.00 | 53 | 975.8 |
| 20260504025007 | 12 | 270 | 16.1 | 22.5 | 0.00 | 0.00 | 0.00 | 53 | 975.8 |
| 20260504023946 | 12 | 274 | 17.7 | 25.7 | 0.00 | 0.00 | 0.00 | 52 | 975.8 |
| 20260504022925 | 12 | 283 | 12.9 | 20.9 | 0.00 | 0.00 | 0.00 | 50 | 975.7 |
| 20260504022424 | 12 | 274 | 16.1 | 22.5 | 0.00 | 0.00 | 0.00 | 49 | 975.7 |
| 20260504021924 | 12 | 284 | 14.5 | 19.3 | 0.00 | 0.00 | 0.00 | 49 | 975.7 |
| 20260504021424 | 12 | 255 | 16.1 | 22.5 | 0.00 | 0.00 | 0.00 | 48 | 975.7 |
| 20260504020924 | 12 | 267 | 8.0 | 11.3 | 0.00 | 0.00 | 0.00 | 48 | 975.6 |
| 20260504020423 | 13 | 272 | 11.3 | 16.1 | 0.00 | 0.00 | 0.00 | 48 | 975.6 |
| 20260504015922 | 13 | 274 | 12.9 | 17.7 | 0.00 | 0.00 | 0.00 | 48 | 975.6 |
| 20260504014901 | 13 | 271 | 17.7 | 25.7 | 0.00 | 0.00 | 0.00 | 47 | 975.5 |
| 20260504014401 | 13 | 255 | 14.5 | 27.4 | 0.00 | 0.00 | 0.00 | 47 | 975.5 |
| 20260504013900 | 13 | 267 | 12.9 | 17.7 | 0.00 | 0.00 | 0.00 | 46 | 975.5 |
| 20260504013400 | 13 | 272 | 19.3 | 25.7 | 0.00 | 0.00 | 0.00 | 46 | 975.4 |
| 20260504012900 | 13 | 283 | 11.3 | 16.1 | 0.00 | 0.00 | 0.00 | 46 | 975.4 |
| 20260504012400 | 13 | 275 | 14.5 | 22.5 | 0.00 | 0.00 | 0.00 | 46 | 975.4 |
| 20260504011900 | 13 | 259 | 6.4 | 11.3 | 0.00 | 0.00 | 0.00 | 47 | 975.3 |
| 20260504010838 | 13 | 266 | 11.3 | 20.9 | 0.00 | 0.00 | 0.00 | 47 | 975.3 |
| 20260504010338 | 13 | 251 | 6.4 | 12.9 | 0.00 | 0.00 | 0.00 | 47 | 975.3 |
| 20260504005316 | 14 | 198 | 4.8 | 9.7 | 0.00 | 0.00 | 0.00 | 42 | 975.2 |
| 20260504004816 | 14 | 269 | 11.3 | 14.5 | 0.00 | 0.00 | 0.00 | 40 | 975.2 |
| 20260504004315 | 14 | 272 | 9.7 | 12.9 | 0.00 | 0.00 | 0.00 | 40 | 975.2 |
| 20260504003815 | 14 | 282 | 8.0 | 16.1 | 0.00 | 0.00 | 0.00 | 40 | 975.1 |
| 20260504003314 | 14 | 267 | 12.9 | 22.5 | 0.00 | 0.00 | 0.00 | 39 | 975.1 |
| 20260504002814 | 14 | 264 | 9.7 | 14.5 | 0.00 | 0.00 | 0.00 | 40 | 975.1 |
| 20260504001752 | 14 | 251 | 9.7 | 17.7 | 0.00 | 0.00 | 0.00 | 39 | 975.0 |
| 20260504001252 | 14 | 265 | 11.3 | 19.3 | 0.00 | 0.00 | 0.00 | 39 | 975.0 |
| 20260504000752 | 14 | 265 | 9.7 | 19.3 | 0.00 | 0.00 | 0.00 | 38 | 974.9 |
| 20260504000252 | 14 | 269 | 16.1 | 22.5 | 0.00 | 0.00 | 0.00 | 38 | 975.0 |
| 20260503235752 | 14 | 261 | 9.7 | 14.5 | 0.00 | 0.00 | 0.00 | 38 | 975.0 |
| 20260503235250 | 14 | 272 | 14.5 | 20.9 | 0.00 | 0.00 | 0.00 | 38 | 975.0 |
| 20260503234750 | 15 | 261 | 17.7 | 22.5 | 0.00 | 0.00 | 0.00 | 38 | 975.0 |
| 20260503233208 | 15 | 267 | 17.7 | 25.7 | 0.00 | 0.00 | 0.00 | 37 | 975.0 |
| 20260503232146 | 15 | 270 | 14.5 | 19.3 | 0.00 | 0.00 | 0.00 | 36 | 975.1 |
| 20260503231125 | 15 | 278 | 16.1 | 25.7 | 0.00 | 0.00 | 0.00 | 36 | 975.1 |
| 20260503230625 | 15 | 266 | 9.7 | 12.9 | 0.00 | 0.00 | 0.00 | 36 | 975.2 |
| 20260503230124 | 15 | 281 | 11.3 | 14.5 | 0.00 | 0.00 | 0.00 | 36 | 975.2 |
| 20260503225623 | 15 | 278 | 16.1 | 24.1 | 0.00 | 0.00 | 0.00 | 36 | 975.2 |
| 20260503225122 | 15 | 282 | 16.1 | 29.0 | 0.00 | 0.00 | 0.00 | 36 | 975.2 |
| 20260503224622 | 15 | 283 | 12.9 | 24.1 | 0.00 | 0.00 | 0.00 | 36 | 975.2 |
| 20260503224122 | 15 | 271 | 17.7 | 25.7 | 0.00 | 0.00 | 0.00 | 36 | 975.3 |
| 20260503223622 | 15 | 285 | 9.7 | 17.7 | 0.00 | 0.00 | 0.00 | 36 | 975.3 |
| 20260503223121 | 15 | 262 | 16.1 | 20.9 | 0.00 | 0.00 | 0.00 | 36 | 975.4 |
| 20260503222059 | 15 | 270 | 9.7 | 16.1 | 0.00 | 0.00 | 0.00 | 36 | 975.5 |
| 20260503221559 | 15 | 268 | 16.1 | 24.1 | 0.00 | 0.00 | 0.00 | 36 | 975.5 |
| 20260503221058 | 15 | 253 | 12.9 | 25.7 | 0.00 | 0.00 | 0.00 | 36 | 975.5 |
| 20260503220558 | 15 | 255 | 9.7 | 14.5 | 0.00 | 0.00 | 0.00 | 36 | 975.5 |
| 20260503215536 | 15 | 266 | 14.5 | 22.5 | 0.00 | 0.00 | 0.00 | 35 | 975.5 |
| 20260503215036 | 15 | 262 | 12.9 | 17.7 | 0.00 | 0.00 | 0.00 | 36 | 975.5 |
| 20260503214536 | 14 | 273 | 11.3 | 14.5 | 0.00 | 0.00 | 0.00 | 36 | 975.5 |
| 20260503214036 | 14 | 269 | 9.7 | 14.5 | 0.00 | 0.00 | 0.00 | 36 | 975.5 |
| 20260503213535 | 14 | 260 | 12.9 | 20.9 | 0.00 | 0.00 | 0.00 | 35 | 975.5 |
| 20260503213035 | 14 | 280 | 12.9 | 24.1 | 0.00 | 0.00 | 0.00 | 36 | 975.5 |
| 20260503212013 | 14 | 253 | 12.9 | 22.5 | 0.00 | 0.00 | 0.00 | 36 | 975.6 |
| 20260503211513 | 14 | 289 | 9.7 | 16.1 | 0.00 | 0.00 | 0.00 | 36 | 975.6 |
| 20260503211012 | 14 | 297 | 9.7 | 14.5 | 0.00 | 0.00 | 0.00 | 37 | 975.7 |
| 20260503210512 | 14 | 286 | 8.0 | 11.3 | 0.00 | 0.00 | 0.00 | 38 | 975.8 |
| 20260503210011 | 14 | 272 | 9.7 | 12.9 | 0.00 | 0.00 | 0.00 | 38 | 976.0 |
| 20260503205511 | 13 | 301 | 8.0 | 11.3 | 0.00 | 0.00 | 0.00 | 38 | 976.0 |
| 20260503205011 | 13 | 272 | 12.9 | 27.4 | 0.00 | 0.00 | 0.00 | 38 | 976.1 |
| 20260503204510 | 13 | 292 | 11.3 | 16.1 | 0.00 | 0.00 | 0.00 | 39 | 976.2 |
| 20260503204010 | 13 | 279 | 11.3 | 19.3 | 0.00 | 0.00 | 0.00 | 40 | 976.4 |
| 20260503203510 | 13 | 303 | 6.4 | 9.7 | 0.00 | 0.00 | 0.00 | 42 | 976.4 |
| 20260503203010 | 13 | 329 | 11.3 | 17.7 | 0.00 | 0.00 | 0.00 | 41 | 976.3 |
| 20260503202510 | 13 | 309 | 6.4 | 8.0 | 0.00 | 0.00 | 0.00 | 41 | 976.3 |
| 20260503200926 | 13 | 313 | 8.0 | 14.5 | 0.00 | 0.00 | 0.00 | 43 | 976.5 |
| 20260503200426 | 13 | 319 | 19.3 | 30.6 | 0.00 | 0.00 | 0.00 | 43 | 976.6 |
| 20260503195405 | 13 | 290 | 8.0 | 11.3 | 0.00 | 0.00 | 0.00 | 38 | 976.4 |
| 20260503194904 | 13 | 273 | 12.9 | 17.7 | 0.00 | 0.00 | 0.00 | 40 | 976.6 |
| 20260503193843 | 13 | 289 | 12.9 | 20.9 | 0.00 | 0.00 | 0.00 | 37 | 976.5 |
| 20260503193343 | 13 | 318 | 14.5 | 22.5 | 0.00 | 0.00 | 0.00 | 38 | 976.6 |
| 20260503192842 | 13 | 325 | 12.9 | 25.7 | 0.00 | 0.00 | 0.00 | 40 | 976.6 |
| 20260503191821 | 13 | 286 | 6.4 | 11.3 | 0.00 | 0.00 | 0.00 | 41 | 976.8 |
| 20260503191321 | 13 | 284 | 12.9 | 19.3 | 0.00 | 0.00 | 0.00 | 40 | 976.9 |
| 20260503190821 | 13 | 284 | 16.1 | 27.4 | 0.00 | 0.00 | 0.00 | 42 | 977.0 |
| 20260503185759 | 13 | 269 | 16.1 | 24.1 | 0.00 | 0.00 | 0.00 | 44 | 977.2 |
| 20260503185259 | 13 | 289 | 11.3 | 20.9 | 0.00 | 0.00 | 0.00 | 44 | 977.2 |
| 20260503184237 | 13 | 320 | 12.9 | 16.1 | 0.00 | 0.00 | 0.00 | 41 | 977.3 |
| 20260503183736 | 13 | 278 | 11.3 | 19.3 | 0.00 | 0.00 | 0.00 | 40 | 977.1 |
| 20260503183236 | 13 | 302 | 12.9 | 17.7 | 0.00 | 0.00 | 0.00 | 39 | 977.1 |
| 20260503182736 | 13 | 312 | 14.5 | 17.7 | 0.00 | 0.00 | 0.00 | 38 | 977.1 |
| 20260503182236 | 13 | 303 | 11.3 | 17.7 | 0.00 | 0.00 | 0.00 | 38 | 977.2 |
| 20260503181736 | 13 | 340 | 16.1 | 20.9 | 0.00 | 0.00 | 0.00 | 38 | 977.2 |
| 20260503181235 | 13 | 266 | 8.0 | 16.1 | 0.00 | 0.00 | 0.00 | 38 | 977.2 |
| 20260503180734 | 14 | 307 | 14.5 | 25.7 | 0.00 | 0.00 | 0.00 | 38 | 977.2 |
| 20260503180234 | 14 | 289 | 8.0 | 16.1 | 0.00 | 0.00 | 0.00 | 35 | 977.1 |
| 20260503175734 | 15 | 278 | 16.1 | 30.6 | 0.00 | 0.00 | 0.00 | 34 | 977.0 |
| 20260503174712 | 15 | 283 | 14.5 | 19.3 | 0.00 | 0.00 | 0.00 | 33 | 977.1 |
| 20260503173651 | 14 | 290 | 8.0 | 14.5 | 0.00 | 0.00 | 0.00 | 36 | 977.1 |
| 20260503173151 | 14 | 282 | 11.3 | 24.1 | 0.00 | 0.00 | 0.00 | 35 | 977.1 |
| 20260503172651 | 15 | 270 | 11.3 | 22.5 | 0.00 | 0.00 | 0.00 | 35 | 977.2 |
| 20260503171628 | 14 | 255 | 9.7 | 16.1 | 0.00 | 0.00 | 0.00 | 36 | 977.4 |
| 20260503150810 | 10 | 259 | 12.9 | 17.7 | 0.00 | 0.00 | 0.00 | 41 | 979.1 |
| 20260503150309 | 10 | 269 | 9.7 | 14.5 | 0.00 | 0.00 | 0.00 | 41 | 979.1 |
| 20260503140224 | 8 | 259 | 14.5 | 20.9 | 0.00 | 0.00 | 0.00 | 42 | 979.8 |
| 20260503131218 | 7 | 293 | 9.7 | 16.1 | 0.00 | 0.00 | 0.00 | 44 | 980.3 |
| 20260503130718 | 7 | 261 | 8.0 | 12.9 | 0.00 | 0.00 | 0.00 | 43 | 980.3 |
| 20260503120112 | 3 | 266 | 11.3 | 16.1 | 0.00 | 0.00 | 0.00 | 62 | 980.9 |
| 20260503110608 | 2 | 276 | 6.4 | 9.7 | 0.00 | 0.00 | 0.00 | 68 | 980.8 |
| 20260503110107 | 2 | 281 | 6.4 | 9.7 | 0.00 | 0.00 | 0.00 | 69 | 980.8 |
| 20260503090458 | 2 | 262 | 6.4 | 11.3 | 0.00 | 0.00 | 0.00 | 69 | 980.9 |
| 20260503081435 | 1 | 253 | 4.8 | 6.4 | 0.00 | 0.00 | 0.00 | 72 | 980.9 |
| 20260503080934 | 1 | 240 | 4.8 | 6.4 | 0.00 | 0.00 | 0.00 | 72 | 980.9 |
| 20260503080434 | 1 | 269 | 6.4 | 8.0 | 0.00 | 0.00 | 0.00 | 73 | 980.9 |
| 20260503072351 | 2 | 239 | 4.8 | 9.7 | 0.00 | 0.00 | 0.00 | 72 | 980.9 |
| 20260503071850 | 1 | 251 | 8.0 | 12.9 | 0.00 | 0.00 | 0.00 | 72 | 980.9 |
| 20260503071350 | 1 | 227 | 4.8 | 9.7 | 0.00 | 0.00 | 0.00 | 74 | 980.9 |
| 20260503070850 | 1 | 233 | 3.2 | 6.4 | 0.00 | 0.00 | 0.00 | 74 | 980.9 |
| 20260503070350 | 1 | 236 | 3.2 | 3.2 | 0.00 | 0.00 | 0.00 | 74 | 981.0 |
| 20260503054825 | 1 | 194 | 3.2 | 4.8 | 0.00 | 0.00 | 0.00 | 72 | 981.7 |
| 20260503054325 | 1 | 195 | 3.2 | 3.2 | 0.00 | 0.00 | 0.00 | 72 | 981.7 |